Regional Weather Roundup
Issued by NWS

Home | Current Version | Previous Version | Text Only | Print | Product List | Glossary Off
Versions: 1 2 3 4 5 6 7 8 9 10 11 12 13 14 15 16 17 18 19 20 21 22 23 24 25 26 27 28 29 30 31 32 33 34 35 36 37 38 39 40 41 42 43 44 45 46 47 48 49 50

000
ASUS43 KDTX 212301
RWRMI
MICHIGAN HOURLY REGIONAL WEATHER ROUNDUP
NATIONAL WEATHER SERVICE DETROIT/PONTIAC MI
600 PM EST SUN DEC 21 2014

NOTE: "FAIR" INDICATES FEW OR NO CLOUDS BELOW 12,000 FEET WITH NO
SIGNIFICANT WEATHER AND/OR OBSTRUCTION TO VISIBILITY.

MIZ047>049-052>055-059>063-066>070-074>076-081>083-220000-
SOUTHEAST LOWER MICHIGAN

CITY           SKY/WX    TMP DP  RH WIND       PRES   REMARKS
ADRIAN         CLOUDY    32  26  78 SE5       30.21F WCI  27
ALMA           CLOUDY    32  29  88 SE8       30.18S WCI  25
ANN ARBOR      CLOUDY    32  24  72 SE7       30.22R WCI  26
BAD AXE        CLOUDY    32  26  80 SE3       30.23S
CARO           CLOUDY    32  24  72 SE3       30.22S
DETROIT CITY   CLOUDY    33  22  63 SE7       30.25S WCI  27
DETROIT        CLOUDY    31  23  72 E5        30.24S WCI  26
FLINT          CLOUDY    33  23  66 SE6       30.21F WCI  28
GROSSE ILE     PTCLDY    30  25  80 E6        30.23S WCI  24
HILLSDALE      CLOUDY    31  27  84 SE7       30.17S WCI  25
HOWELL         CLOUDY    31  27  82 SE6       30.19S WCI  26

CITY           SKY/WX    TMP DP  RH WIND       PRES   REMARKS
JACKSON        CLOUDY    32  26  78 SE8       30.18S WCI  25
LAMBERTVILLE   MOCLDY    32  27  80 CALM      30.22F
LANSING        CLOUDY    33  26  75 SE10      30.19R WCI  25
LAPEER         CLOUDY    32  25  74 SE6       30.22S WCI  26
MASON          CLOUDY    32  27  81 SE7       30.19R WCI  25
MONROE         CLOUDY    30  25  80 E5        30.21F WCI  25
MT. CLEMENS    MOCLDY    29  26  89 SE8       30.22S WCI  21
PONTIAC        CLOUDY    31  22  69 SE7       30.20S WCI  24
PORT HOPE        N/A     32  25  75 SE3       30.23R
PORT HURON     PTCLDY    27  23  86 CALM      30.25S
TRI CITIES     CLOUDY    34  26  72 SE8       30.21S WCI  27
TROY           CLOUDY    33  24  68 SE7       30.25S WCI  27
SAGINAW HB     CLOUDY    32  27  80 SE6       30.21S WCI  26
$$
MIZ043>046-050>051-056>058-064>065-071>073-077>080-220000-
SOUTHWEST LOWER MICHIGAN

CITY           SKY/WX    TMP DP  RH WIND       PRES   REMARKS
BATTLE CREEK   PTCLDY    32  24  72 SE7       30.16S WCI  26
BENTON HARBOR  MOCLDY    33  27  78 SE8       30.13S WCI  26
BIG RAPIDS     CLOUDY    32  29  88 SE9       30.13S WCI  24
COLDWATER      PTCLDY    31  26  80 MISG      30.16F
FREMONT        CLOUDY    33  28  83 SE3       30.13S
HOLLAND        CLOUDY    36  27  69 SE8       30.14S WCI  30
GRAND RAPIDS   MOCLDY    31  24  75 SE8       30.15S WCI  23
IONIA          FAIR      32  28  84 SE9       30.15F WCI  24
KALAMAZOO      CLEAR     32  24  72 SE6       30.15F WCI  26
LUDINGTON      CLOUDY    36  31  83 SE7       30.11S WCI  30
MARSHALL       PTCLDY    30  24  81 SE5       30.16S WCI  25
MOUNT PLEASANT CLOUDY    33  28  83 SE6       30.17S WCI  27
MUSKEGON       CLOUDY    35  27  72 SE8       30.13F WCI  29
SOUTH HAVEN    CLOUDY    36  28  73 SE7       30.13F WCI  30
$$
MIZ016>042-220000-
NORTHERN LOWER MICHIGAN

CITY           SKY/WX    TMP DP  RH WIND       PRES   REMARKS
ALPENA         CLOUDY    31  27  85 SE7       30.20R WCI  24
BEAVER ISLAND  CLOUDY    34  32  91 S7        30.10R WCI  28
BELLAIRE       CLOUDY    33  29  82 S5        30.13F WCI  29
CADILLAC       CLOUDY    30  26  86 SE7       30.10S WCI  23
CHARLEVOIX     CLOUDY    32  29  89 SE9       30.14S WCI  25
FRANKFORT      CLOUDY    33  30  87 SE10      30.10S WCI  25
GAYLORD        CLOUDY    29  26  89 S10       30.12R FOG     WCI  20
GRAYLING       CLOUDY    31  28  90 SE8       30.14F FOG     WCI  23
HARBOR SPRINGS CLOUDY    32  28  86 E3        30.13R
HOUGHTON LAKE  CLOUDY    30  26  85 E7        30.15S WCI  23
MANISTEE       CLOUDY    34  27  75 SE9       30.10F WCI  26
OSCODA         CLOUDY    32  27  81 S6        30.21S WCI  26
PELLSTON       CLOUDY    32  28  85 SE8       30.14R WCI  25
ROGERS CITY    CLOUDY    31  30  94 S10G17    30.17S FOG     WCI  23
TRAVERSE CITY  CLOUDY    34  28  79 CALM      30.11S
$$
MIZ007>008-015-220000-
EASTERN UPPER MICHIGAN

CITY           SKY/WX    TMP DP  RH WIND       PRES   REMARKS
KINROSS        CLOUDY    30  28  93 SE10      30.13S WCI  21
MACKINAC ISLAN CLOUDY    32  31  94 SE9       30.12S WCI  24
NEWBERRY       CLOUDY    30  30  99 SE10      30.07S FOG     WCI  21
S. S. MARIE    CLOUDY    30  27  88 E8        30.15R WCI  22
MUNISING         N/A     38  32  79 S12G18    30.01R WCI  30
$$
MIZ004>006-011>014-085-220000-
CENTRAL UPPER MICHIGAN

CITY           SKY/WX    TMP DP  RH WIND       PRES   REMARKS
MANISTIQUE     DRIZZLE   35  35  99 S13G20    30.05S WCI  26
ESCANABA       CLOUDY    37  32  81 S9        30.01S WCI  31
MENOMINEE      CLOUDY    36  32  87 S12       30.00S WCI  27
SAWYER-GWINN   LGT SNOW  32  32 100 S15       29.95F WCI  22
$$
MIZ001>003-009>011-084-220000-
WESTERN UPPER MICHIGAN

CITY           SKY/WX    TMP DP  RH WIND       PRES   REMARKS
IRON MOUNTAIN  LGT SNOW  32  30  92 SE10      29.94S FOG     WCI  24
HOUGHTON       SNOW      32  30  92 SE8       29.89S VSB 1/4 WCI  25
COPPER HARBOR    N/A     35  31  85 SW16G28   29.90F WCI  25
IRONWOOD       CLOUDY    34  30  86 S10G16    29.78F WCI  26
$$

ABBREVIATIONS USED IN REMARKS
   TC - TEMPERATURE IN CELSIUS
  WCI - WIND CHILL INDEX
   HX - HEAT INDEX
  VSB - VISIBILITY




USA.gov is the U.S. government's official web portal to all federal, state and local government web resources and services.